When you browse on this site, cookies collect data to enhance your experience and personalize the content and advertising you see.
Visit our Privacy Policy to learn more. By continuing to use the site, you agree to this use of cookies and data.
  • In Czech Republic
  • List of Countries
  • For 7 days
  • Water Temperature
  • Satellite Maps
  • Weather Map
  • Weather Widgets
  • user-avatar
    Login

    Hourly Weather Chemerichino

    Today, 19 February, Tuesday

    Time Temperature Precipitation Wind Pressure Humidity
    00:00 -4°C° 0 mm 3 mps 749 mmHg 74%
    01:00 -4°C° 0 mm 3 mps 749 mmHg 72%
    02:00 -4°C° 0 mm 4 mps 748 mmHg 70%
    03:00 -4°C° 0 mm 4 mps 748 mmHg 71%
    04:00 -4°C° 0 mm 4 mps 747 mmHg 72%
    05:00 -5°C° 0 mm 4 mps 747 mmHg 73%
    06:00 -4°C° 0 mm 4 mps 746 mmHg 74%
    07:00 -4°C° 0 mm 4 mps 746 mmHg 76%
    08:00 -4°C° 0 mm 4 mps 745 mmHg 77%
    09:00 -4°C° 0 mm 5 mps 745 mmHg 76%
    10:00 -1°C° 0 mm 5 mps 744 mmHg 75%
    11:00 -1°C° 0 mm 6 mps 744 mmHg 74%
    12:00 +1°C° 0 mm 6 mps 743 mmHg 75%
    13:00 +1°C° 0 mm 6 mps 742 mmHg 76%
    14:00 +2°C° 0 mm 6 mps 742 mmHg 76%
    15:00 +1°C° 0 mm 5 mps 741 mmHg 80%
    16:00 +1°C° 0 mm 5 mps 740 mmHg 85%
    17:00 0°C° 0 mm 5 mps 739 mmHg 89%
    18:00 0°C° 0 mm 5 mps 739 mmHg 89%
    19:00 0°C° 0 mm 5 mps 738 mmHg 89%
    20:00 0°C° 0 mm 5 mps 738 mmHg 89%
    21:00 0°C° 0 mm 5 mps 737 mmHg 88%
    22:00 0°C° 0 mm 5 mps 737 mmHg 87%
    23:00 0°C° 0 mm 5 mps 736 mmHg 87%

    Tomorrow, 20 February, Wednesday

    Time Temperature Precipitation Wind Pressure Humidity
    00:00 0°C° 0 mm 5 mps 736 mmHg 88%
    01:00 0°C° 0 mm 5 mps 736 mmHg 89%
    02:00 0°C° 0 mm 5 mps 736 mmHg 91%
    03:00 0°C° 0 mm 5 mps 736 mmHg 91%
    04:00 0°C° 0 mm 5 mps 736 mmHg 91%
    05:00 0°C° 0 mm 4 mps 735 mmHg 91%
    06:00 0°C° 0.1 mm 5 mps 735 mmHg 91%
    07:00 0°C° 0.1 mm 5 mps 735 mmHg 91%
    08:00 0°C° 0.1 mm 5 mps 735 mmHg 91%
    09:00 +1°C° 0.1 mm 5 mps 735 mmHg 88%
    10:00 +1°C° 0.1 mm 6 mps 735 mmHg 85%
    11:00 +1°C° 0.1 mm 6 mps 735 mmHg 82%
    12:00 +2°C° 0.1 mm 6 mps 735 mmHg 80%
    13:00 +2°C° 0.1 mm 6 mps 735 mmHg 79%
    14:00 +2°C° 0.1 mm 6 mps 735 mmHg 77%
    15:00 +1°C° 0.2 mm 6 mps 735 mmHg 80%
    16:00 +1°C° 0.2 mm 6 mps 735 mmHg 82%
    17:00 -1°C° 0.2 mm 6 mps 734 mmHg 85%
    18:00 -2°C° 0.2 mm 7 mps 735 mmHg 80%
    19:00 -3°C° 0.2 mm 7 mps 735 mmHg 76%
    20:00 -4°C° 0.2 mm 7 mps 736 mmHg 71%
    21:00 -4°C° 0 mm 7 mps 736 mmHg 71%
    22:00 -5°C° 0 mm 8 mps 737 mmHg 71%
    23:00 -6°C° 0 mm 8 mps 737 mmHg 71%

    Day after tomorrow, 21 February, Thursday

    Time Temperature Precipitation Wind Pressure Humidity
    00:00 -6°C° 0 mm 8 mps 737 mmHg 71%
    01:00 -6°C° 0 mm 8 mps 738 mmHg 71%
    02:00 -7°C° 0 mm 7 mps 738 mmHg 70%
    03:00 -7°C° 0 mm 7 mps 738 mmHg 70%
    04:00 -6°C° 0 mm 7 mps 739 mmHg 70%
    05:00 -6°C° 0 mm 7 mps 739 mmHg 70%
    06:00 -7°C° 0 mm 7 mps 740 mmHg 68%
    07:00 -7°C° 0 mm 7 mps 740 mmHg 66%
    08:00 -8°C° 0 mm 7 mps 741 mmHg 65%
    09:00 -8°C° 0 mm 7 mps 741 mmHg 63%
    10:00 -8°C° 0 mm 7 mps 742 mmHg 62%
    11:00 -8°C° 0 mm 7 mps 742 mmHg 60%
    12:00 -6°C° 0 mm 6 mps 742 mmHg 59%
    13:00 -6°C° 0 mm 6 mps 743 mmHg 57%
    14:00 -6°C° 0 mm 6 mps 743 mmHg 56%
    15:00 -6°C° 0 mm 6 mps 744 mmHg 57%
    16:00 -6°C° 0 mm 6 mps 744 mmHg 59%
    17:00 -6°C° 0 mm 5 mps 744 mmHg 60%
    18:00 -6°C° 0 mm 5 mps 745 mmHg 61%
    19:00 -7°C° 0 mm 5 mps 746 mmHg 62%
    20:00 -7°C° 0 mm 5 mps 746 mmHg 63%
    21:00 -8°C° 0 mm 5 mps 747 mmHg 64%
    22:00 -8°C° 0 mm 5 mps 747 mmHg 65%
    23:00 -8°C° 0 mm 5 mps 748 mmHg 65%

    22 February, Friday

    Time Temperature Precipitation Wind Pressure Humidity
    00:00 -8°C° 0 mm 5 mps 748 mmHg 64%
    01:00 -10°C° 0 mm 5 mps 749 mmHg 63%
    02:00 -10°C° 0 mm 5 mps 750 mmHg 62%
    03:00 -11°C° 0 mm 5 mps 750 mmHg 62%
    04:00 -11°C° 0 mm 6 mps 751 mmHg 61%
    05:00 -12°C° 0 mm 6 mps 751 mmHg 61%
    06:00 -12°C° 0 mm 6 mps 752 mmHg 60%
    07:00 -12°C° 0 mm 6 mps 753 mmHg 60%
    08:00 -12°C° 0 mm 6 mps 754 mmHg 59%
    09:00 -12°C° 0 mm 6 mps 755 mmHg 57%
    10:00 -11°C° 0 mm 5 mps 756 mmHg 55%
    11:00 -10°C° 0 mm 5 mps 756 mmHg 53%
    12:00 -10°C° 0 mm 5 mps 757 mmHg 50%
    13:00 -8°C° 0 mm 5 mps 757 mmHg 48%
    14:00 -7°C° 0 mm 5 mps 757 mmHg 46%
    15:00 -7°C° 0 mm 5 mps 757 mmHg 47%
    16:00 -8°C° 0 mm 5 mps 757 mmHg 47%
    17:00 -8°C° 0 mm 5 mps 757 mmHg 48%
    18:00 -8°C° 0 mm 5 mps 757 mmHg 51%
    19:00 -8°C° 0 mm 5 mps 758 mmHg 55%
    20:00 -8°C° 0 mm 5 mps 758 mmHg 59%
    21:00 -10°C° 0 mm 5 mps 758 mmHg 63%
    22:00 -10°C° 0 mm 5 mps 758 mmHg 67%
    23:00 -9°C° 0 mm 4 mps 759 mmHg 71%

    23 February, Saturday

    Time Temperature Precipitation Wind Pressure Humidity
    00:00 -9°C° 0 mm 4 mps 759 mmHg 73%
    01:00 -10°C° 0 mm 4 mps 759 mmHg 74%
    02:00 -9°C° 0 mm 3 mps 759 mmHg 75%
    03:00 -9°C° 0 mm 3 mps 759 mmHg 76%
    04:00 -8°C° 0 mm 2 mps 759 mmHg 77%
    05:00 -8°C° 0 mm 2 mps 759 mmHg 78%
    06:00 -8°C° 0 mm 2 mps 759 mmHg 79%
    07:00 -8°C° 0 mm 2 mps 759 mmHg 79%
    08:00 -8°C° 0 mm 2 mps 759 mmHg 79%
    09:00 -7°C° 0 mm 2 mps 759 mmHg 76%
    10:00 -7°C° 0 mm 2 mps 759 mmHg 72%
    11:00 -6°C° 0 mm 2 mps 759 mmHg 69%
    12:00 -6°C° 0 mm 2 mps 758 mmHg 67%
    13:00 -5°C° 0 mm 2 mps 758 mmHg 65%
    14:00 -5°C° 0 mm 2 mps 757 mmHg 63%
    15:00 -5°C° 0.1 mm 2 mps 757 mmHg 68%
    16:00 -5°C° 0.1 mm 2 mps 757 mmHg 73%
    17:00 -5°C° 0.1 mm 2 mps 756 mmHg 77%
    18:00 -5°C° 0.1 mm 2 mps 756 mmHg 80%
    19:00 -5°C° 0.1 mm 2 mps 757 mmHg 83%
    20:00 -5°C° 0.1 mm 2 mps 757 mmHg 86%
    21:00 -5°C° 0 mm 2 mps 757 mmHg 87%
    22:00 -4°C° 0 mm 1 mps 757 mmHg 88%
    23:00 -4°C° 0 mm 1 mps 757 mmHg 89%

    24 February, Sunday

    Time Temperature Precipitation Wind Pressure Humidity
    00:00 -6°C° 0 mm 2 mps 757 mmHg 90%
    01:00 -6°C° 0 mm 2 mps 758 mmHg 91%
    02:00 -7°C° 0 mm 2 mps 758 mmHg 91%
    03:00 -7°C° 0 mm 2 mps 758 mmHg 91%
    04:00 -7°C° 0 mm 2 mps 759 mmHg 91%
    05:00 -6°C° 0 mm 1 mps 759 mmHg 92%
    06:00 -6°C° 0 mm 1 mps 759 mmHg 90%
    07:00 -7°C° 0 mm 2 mps 759 mmHg 89%
    08:00 -7°C° 0 mm 2 mps 760 mmHg 88%
    09:00 -6°C° 0 mm 2 mps 760 mmHg 83%
    10:00 -5°C° 0 mm 2 mps 760 mmHg 77%
    11:00 -4°C° 0 mm 2 mps 760 mmHg 72%
    12:00 -3°C° 0 mm 2 mps 759 mmHg 70%
    13:00 -2°C° 0 mm 2 mps 759 mmHg 68%
    14:00 -2°C° 0 mm 3 mps 759 mmHg 66%
    15:00 -2°C° 0 mm 3 mps 758 mmHg 70%
    16:00 -2°C° 0 mm 2 mps 758 mmHg 73%
    17:00 -3°C° 0 mm 2 mps 757 mmHg 76%
    18:00 -4°C° 0 mm 3 mps 757 mmHg 79%
    19:00 -4°C° 0 mm 3 mps 756 mmHg 82%
    20:00 -4°C° 0 mm 3 mps 755 mmHg 85%
    21:00 -4°C° 0 mm 4 mps 755 mmHg 87%
    22:00 -4°C° 0 mm 4 mps 754 mmHg 88%
    23:00 -3°C° 0 mm 4 mps 753 mmHg 89%
    Show more